Weather in Makarov

Russia / Sakhalin District     48°37′30″N   142°46′43″E
temp.,
°C
wind,
m/s
gust,
m/s
humid.,
%
clouds,
%
prec.,
mm/h
press.,
hPa
HPBL,
m
19 january, tue
tue1923:00−20nne1296100 0.0 101268
02:00−21nne2296100 0.0 101275
05:00−23n1195100 0.0 101135
08:00−23n1190100 0.0 101343
11:00−21n018198 0.0 1013117
14:00−17wsw1471100 0.0 1013523
17:00−18wnw3774100 0.0 1013581
20:00−22wnw238833 0.0 101528
20 january, wed
wed2023:00−21w159535 0.1 1015276
02:00−21w3118795 0.0 1015506
05:00−22w3118880 0.0 1015505
08:00−23w299053 0.0 1017386
11:00−20wnw4117834 0.0 1017602
14:00−16wnw513590 0.0 1018844
17:00−17wnw411620 0.0 1018661
20:00−22w33900 0.0 102169
21 january, thu
thu2123:00−22wnw33860 0.0 102143
02:00−22wnw22730 0.0 102126
05:00−20wnw116619 0.0 101920
08:00−18ene1170100 0.0 101738
11:00−18ne1294100 0.5 1015173
14:00−15ene1188100 0.7 1013275
17:00−15ese1190100 0.8 1013168
20:00−16wnw119686 0.1 101520
22 january, fri
fri2223:00−17w229048 0.1 101528
02:00−18w22902 0.0 101523
05:00−19wnw22923 0.0 101520
08:00−21nw11950 0.0 101520
11:00−18nw01875 0.0 101594
14:00−15ese127534 0.0 1014573
17:00−17ese128943 0.1 1013319
20:00−19n129882 0.1 101457
23 january, sat
sat2323:00−23wnw228967 0.1 101640
02:00−23wnw34830 0.0 101693
05:00−24wnw25890 0.0 1018163
08:00−23wnw25880 0.0 1019170
11:00−20wnw411730 0.0 1020690
14:00−17wnw48650 0.0 1020945
17:00−19wnw38740 0.0 1021737
20:00−22wnw23900 0.0 102345